Location: Newark
(49.4900°N, 20.6656°E)
Time: 17:18:34
(UTC+00:00)

STARLINK-1767 - Pass Details

Date: 24 September 2020
Orbit: 549 x 551 km, 53.0° (Epoch: 30 October)

Event Time Altitude Azimuth Distance (km) Brightness Sun altitude
Exits shadow 01:35:10 46° 32° (NNE) 765 4.6 -27.1°
Drops below altitude 10° 01:38:37 10° 74° (ENE) 1,862 7.2 -26.6°
Sets 01:40:55 0° 80° (E) 2,760 8.2 -26.3°
